Zurück zum Katalog

MINOTAUR 4 R/B

AktivLEO
NORAD 63598·ROCKET BODY·🇺🇸 United States

Gestartet Apr 16, 2025 von Vandenberg Space Force Base

Loading…

Nächste Überflüge (nächste 24 Stunden)

TLE

AlterndSource: Mike McCants

Epoche: Sep 10, 2026, 03:48 UTC

1 63598U 25077C   26253.15844306 0.00000000  00000-0  00000-0 0    04
2 63598  63.3953 358.2237 0032791 352.7982   7.2018 13.39148365    01

Verfolge MINOTAUR 4 R/B in Echtzeit mit AllMySat

Download on the App Store